Regional Weather Roundup
Issued by NWS

Home | Current Version | Previous Version | Graphics & Text | Print | Product List | Glossary On
Versions: 1 2 3 4 5 6 7 8 9 10 11 12 13 14 15 16 17 18 19 20 21 22 23 24 25 26 27 28 29 30 31 32 33 34 35 36 37 38 39 40 41 42 43 44 45 46 47 48 49 50
000
ASUS43 KLOT 200900
RWRIL

ILLINOIS REGIONAL WEATHER ROUNDUP
NATIONAL WEATHER SERVICE CHICAGO/ROMEOVILLE IL
300 AM CST SAT DEC 20 2014

NOTE: "FAIR" INDICATES FEW OR NO CLOUDS BELOW 12,000 FEET WITH NO
SIGNIFICANT WEATHER AND/OR OBSTRUCTIONS TO VISIBILITY.

* THESE STATIONS ARE NOT UNDER NWS QUALITY CONTROL. THEY ALSO MAY NOT
  REPORT WEATHER SUCH AS PRECIPITATION OR FOG.

ILZ001-002-007-009-015-016-024-201000-
NORTHWEST ILLINOIS

CITY           SKY/WX    TMP DP  RH WIND       PRES   REMARKS
MOLINE         CLOUDY    29  24  82 E5        30.26S WCI  24
STERLING*      CLOUDY    27  23  86 CALM      30.28S
$$

ILZ003-004-008-010-011-017-018-201000-
NORTH CENTRAL ILLINOIS

CITY           SKY/WX    TMP DP  RH WIND       PRES   REMARKS
ROCKFORD       CLOUDY    26  22  84 CALM      30.30R
$$

ILZ005-006-012>014-019>023-201000-
NORTHEAST ILLINOIS

CITY           SKY/WX    TMP DP  RH WIND       PRES   REMARKS
CHICAGO-OHARE  CLOUDY    30  23  75 CALM      30.27S
CHICAGO-MIDWAY CLOUDY    32  25  75 S6        30.28S WCI  26
AURORA         CLOUDY    27  22  81 CALM      30.28R HAZE
WAUKEGAN       CLOUDY    27  21  78 CALM      30.27S
DUPAGE AIRPORT CLOUDY    28  23  81 CALM      30.26F
WHEELING       CLOUDY    29  22  75 CALM      30.29S
NORTHERLY ISL    N/A     32  24  73 S5          N/A  WCI  27
$$

LMZ740>746-201000-
SOUTHERN LAKE MICHIGAN

STATION/POSITION SKY/WX   TEMP    WIND        PRES    VSBY  WAVE
                          AIR SEA DIR/SP/G                  HT/PER
                          (F)     (DEG/KT/KT) (MB)    (MI)  (FT/S)
WAUKEGAN HARBOR            29        CALM       N/A
HARRISON CRIB              32     200/ 10/ 11   N/A
BURNHAM HARBOR             32     180/  5/  7   N/A
CALUMET HARBOR             31     220/  3/  4 1024.3R
$$

ILZ025>027-034>036-040-047-049-050-058-095>099-201000-
WEST-CENTRAL ILLINOIS

CITY           SKY/WX    TMP DP  RH WIND       PRES   REMARKS
QUINCY         CLOUDY    32  27  81 SE7       30.23F WCI  26
$$

ILZ028>032-037-038-041>044-048-051>054-059>061-201000-
CENTRAL ILLINOIS

CITY           SKY/WX    TMP DP  RH WIND       PRES   REMARKS
DECATUR        CLOUDY    30  26  85 S3        30.27F
PEORIA         CLOUDY    28  24  85 NE3       30.27S FOG
SPRINGFIELD    CLOUDY    31  26  82 SE3       30.28R
TAYLORVILLE    NOT AVBL
$$

ILZ033-039-045-046-055>057-062-063-201000-
EAST-CENTRAL ILLINOIS

CITY           SKY/WX    TMP DP  RH WIND       PRES   REMARKS
CHAMPAIGN      PTCLDY    24  22  91 E5        30.27F FOG     WCI  18
MATTOON        CLOUDY    29  24  82 E3        30.26F
$$

ILZ079-100>102-201000-
SOUTHWEST ILLINOIS

CITY           SKY/WX    TMP DP  RH WIND       PRES   REMARKS
BELLEVILLE     CLOUDY    34  30  88 CALM      30.27R
CAHOKIA*       CLOUDY    35  29  78 CALM      30.27S
$$

ILZ064>066-069>071-074>076-080>082-084>086-088>090-092>094-201000-
SOUTH-CENTRAL ILLINOIS

CITY           SKY/WX    TMP DP  RH WIND       PRES   REMARKS
CARBONDALE     CLOUDY    33  28  81 CALM      30.27S
MT. VERNON     CLOUDY    34  25  69 CALM      30.28S
$$

ILZ067-068-072-073-078-083-087-091-201000-
SOUTHEAST ILLINOIS

CITY           SKY/WX    TMP DP  RH WIND       PRES   REMARKS
LAWRENCEVILLE  CLOUDY    30  27  88 CALM      30.30S
$$

ABBREVIATIONS USED IN REMARKS
   TC - TEMPERATURE IN CELSIUS
  WCI - WIND CHILL INDEX
   HX - HEAT INDEX
  VSB - VISIBILITY
$$




USA.gov is the U.S. government's official web portal to all federal, state and local government web resources and services.